Weather in Baranovo

Russia / Ivanovo Oblast     56°54′31″N   42°38′34″E
temp.,
°C
wind,
m/s
gust,
m/s
humid.,
%
clouds,
%
prec.,
mm/h
press.,
hPa
HPBL,
m
4 march, thu
thu400:00−2wsw4119598 0.1 1002575
03:00−2wsw6129699 0.5 999708
06:00−1sw61296100 1.4 995774
09:00+1w81594100 3.2 9921230
12:000wnw8138189 1.3 9921438
15:00−2wnw7118374 1.4 9951170
18:00−5wnw389089 0.1 997177
21:00−9nw349356 0.1 99972
5 march, fri
fri500:00−11nw23952 0.0 100022
03:00−13wnw23951 0.0 100220
06:00−14w33971 0.0 100349
09:00−10w36959 0.0 1004207
12:00−6w369166 0.0 1005451
15:00−5w369283 0.3 1006593
18:00−9wnw339267 0.1 100750
21:00−11wnw389334 0.1 1010188
6 march, sat
sat600:00−14nw369467 0.0 1012105
03:00−17wnw339342 0.0 101446
06:00−19wnw339839 0.0 101566
09:00−16wnw369420 0.0 1016219
12:00−11wnw358865 0.0 1015596
15:00−9w468783 0.1 1014844
18:00−11w2396100 0.2 101360
21:00−12wsw2497100 0.4 1013121
7 march, sun
sun700:00−14sw369886 0.1 101196
03:00−13ssw4109689 0.1 1008240
06:00−11ssw6138999 0.0 1004527
09:00−9ssw7139399 0.4 1000752
12:00−6ssw71292100 0.6 996999
15:00−4ssw71294100 1.7 9921038
18:00−6wnw71393100 2.0 991869
21:00−9w61381100 2.2 993747
8 march, mon
mon800:00−14wsw498933 0.0 993182
03:00−10ssw3109650 0.4 993466
06:00−9ssw41094100 1.1 992631
09:00−8ssw3794100 2.5 993528
12:00−5w1291100 1.0 995460
15:00−6nnw4791100 1.6 998701
18:00−10nw4991100 0.3 1001266
21:00−10nw4109295 0.3 1005437